User: anonymous   Login
Location: Zilina
(0.0000°N, 18.7333°E)
Time: 22:45:03
(UTC+02:00)
Language:

Cosmos 2298 Rocket - Orbit

View from above orbital plane
View from above orbital plane
View from above satellite
View from above satellite

Ground track
Ground track

The orbit data is extracted from the following two-line orbital elements,

1 23432U 94083B   19292.39051150  .00000011  00000-0  13346-4 0  9998
2 23432  74.0329 175.8812 0005452 189.4883 291.4498 14.33524727298701
Epoch (UTC): 19 October 2019 09:22:20
Eccentricity: 0.0005452
inclination: 74.0329°
perigee height: 776 km
apogee height: 784 km
right ascension of ascending node: 175.8812°
argument of perigee: 189.4883°
revolutions per day: 14.33524727
mean anomaly at epoch: 291.4498°
orbit number at epoch: 29870

The dashed part of the orbit path shows where the satellite is in the earth's shadow,  

DLR